Regional Weather Roundup
Issued by NWS Lake Charles, LA

Home | Current Version | Previous Version | Text Only | Print | Product List | Glossary On
Versions: 1 2 3 4 5 6 7 8 9 10 11 12 13 14 15 16 17 18 19 20 21 22 23 24 25 26 27 28 29 30 31 32 33 34 35 36 37 38 39 40 41 42 43 44 45 46 47 48 49 50
000
ASUS44 KLCH 042110
RWRLCH
RWRLCH
REGIONAL WEATHER ROUNDUP
NATIONAL WEATHER SERVICE LAKE CHARLES LA
400 PM CDT SAT JUL 04 2015

Note: "fair" indicates few or no clouds below 12,000 feet with no
significant weather and/or obstructions to visibility.


ACROSS SOUTHEAST TEXAS

CITY           SKY/WX    TMP DP  RH WIND       PRES   REMARKS
BEAUMONT       PTSUNNY   88  76  67 S14       30.00S
BEAUMONT CITY  MOCLDY    85  74  69 S9        30.00R
ORANGE         MOCLDY    85  71  62 S13       30.03R
JASPER         RAIN      79  75  87 CALM      30.01S
$$

ACROSS CENTRAL LOUISIANA

CITY           SKY/WX    TMP DP  RH WIND       PRES   REMARKS
LEESVILLE      PTSUNNY   86  74  66 S10       29.98S
FULLERTON        N/A     89  75  63 S8        29.98S
ALEXANDRIA INT CLOUDY    76  73  91 E8        30.01R
ESLER FIELD    PTSUNNY   76  71  85 SE6       30.05R
DERIDDER       TSTM      75  72  89 S12G26    30.03R
OAKDALE        CLOUDY    78  73  85 CALM      30.03R
OPELOUSAS      TSTM     N/A N/A N/A SE6       30.04S
$$

ACROSS SOUTHWEST AND SOUTH CENTRAL LOUISIANA

CITY           SKY/WX    TMP DP  RH WIND       PRES   REMARKS
SULPHUR        CLOUDY    85  75  71 S8        30.02S
LAKE CHARLES   CLOUDY    84  76  76 S6        30.02R
CHENNAULT INT  PTSUNNY   84  75  74 SW7       30.03R THUNDER
CAMERON PHI    CLEAR     86  77  74 S15       30.04F
DEQUINCY         N/A     76  76 100 SE3       30.01F
JENNINGS         N/A     81  73  74 CALM      30.03S
LAFAYETTE      TSTM      75  69  81 NW8G20    30.04F
NEW IBERIA     NOT AVBL
ABBEVILLE      CLOUDY    74  71  88 CALM      30.05R THUNDER
PATTERSON      CLOUDY    84  75  74 SW10      30.04F
SALT POINT       N/A     86  76  71 SW6       30.02F
$$

SELECTED SITES ACROSS THE REGION

CITY           SKY/WX    TMP DP  RH WIND       PRES   REMARKS
HOUSTON BUSH   PTSUNNY   88  74  63 S13G21    29.98S
HOUSTON HOBBY  PTSUNNY   85  76  74 S10       29.99F THUNDER
GALVESTON      CLOUDY    88  79  74 S18       30.02S HX 103
COLLEGE STAT   MOSUNNY   89  72  56 S21G26    29.98S
CONROE         TSTM      77  70  79 S9G28     30.01R
HUNTSVILLE     MOSUNNY   92  73  53 SW9G16    29.98F HX 100
LUFKIN         MOSUNNY   92  72  51 SW9       29.96F
SHREVEPORT     LGT RAIN  73  70  90 N15       30.02R
MONROE         PTSUNNY   85  66  53 VRB3      30.01R
NATCHEZ MS     CLOUDY    73  66  78 S7        30.08S
BATON ROUGE    LGT RAIN  77  72  84 W5        30.05R
N.O. INTL ARPT CLOUDY    84  72  67 W12       30.04R
SLIDELL        CLOUDY    86  74  67 VRB6      30.04R
$$

MARINE REPORTS

STATION/POSITION TIME  TEMP    WIND        PRES    VSBY  WAVE
                       AIR SEA DIR/SP/G                  HT/PER
                 (UTC) (F)     (DEG/KT/KT) (MB)    (MI)  (FT/S)
BUOY 30 S HIGH I 2050   85 85  190/ 14/ 16 1015.7F         3/ 6
SEA RIM ST PARK  2000   85     200/ 12/ 15 1016.9S
PORT ARTHUR      2000      84  200/ 10/ 13 1016.2F
SABINE PASS N    2000   86 85  210/ 11/ 16 1016.5S
TEXAS POINT      NOT AVBL
CALCASIEU PASS   2000   85 85  210/ 14/ 16   N/A
LK CHARLES BEACH 2000   85 86                N/A
MARSH ISLAND     2000   87     210/  2/  6   N/A           0
FRESH WATER LOCK 2000   85 85  170/  9/ 12 1017.0S
AMERADA PASS     2000   85 85  200/  2/  5 1017.5S
$$


USA.gov is the U.S. government's official web portal to all federal, state and local government web resources and services.